Regional Weather Roundup
Issued by NWS

Home | Current Version | Previous Version | Graphics & Text | Print | Product List | Glossary On
Versions: 1 2 3 4 5 6 7 8 9 10 11 12 13 14 15 16 17 18 19 20 21 22 23 24 25 26 27 28 29 30 31 32 33 34 35 36 37 38 39 40 41 42 43 44 45 46 47 48 49 50
000
ASUS43 KDTX 191701
RWRMI
MICHIGAN HOURLY REGIONAL WEATHER ROUNDUP
NATIONAL WEATHER SERVICE DETROIT/PONTIAC MI
100 PM EDT SAT AUG 19 2017

NOTE: "FAIR" INDICATES FEW OR NO CLOUDS BELOW 12,000 FEET WITH NO
SIGNIFICANT WEATHER AND/OR OBSTRUCTION TO VISIBILITY.

MIZ047>049-052>055-059>063-066>070-074>076-081>083-191800-
SOUTHEAST LOWER MICHIGAN

CITY           SKY/WX    TMP DP  RH WIND       PRES   REMARKS
ADRIAN         MOSUNNY   76  60  57 NW9       29.95R
ALMA           MOSUNNY   73  56  53 NW7       29.94S
ANN ARBOR      PTSUNNY   78  57  48 NW14      29.93S
BAD AXE        MOSUNNY   71  57  61 NW7G17    29.91S
CARO           MOSUNNY   73  57  57 NW6       29.92S
DETROIT CITY   MOSUNNY   76  56  49 W10       29.92S
DETROIT        MOSUNNY   79  59  50 NW15G22   29.93S
FLINT          MOSUNNY   74  58  57 W12       29.93F
GROSSE ILE     MOSUNNY   77  61  58 NW5       29.91S
HILLSDALE      CLOUDY    73  57  56 NW9       29.96S
HOWELL         MOSUNNY   73  55  52 NW8       29.95S

CITY           SKY/WX    TMP DP  RH WIND       PRES   REMARKS
JACKSON        MOSUNNY   75  55  49 W7        29.95S
LAMBERTVILLE   CLOUDY    76  63  64 NW7       29.93R
LANSING        MOSUNNY   74  55  51 VRB6      29.95F
LAPEER         CLOUDY    72  56  57 N10G16    29.93F
MASON          MOSUNNY   76  56  49 NW9G16    29.95S
MONROE         PTSUNNY   78  62  56 NW8       29.92S
MT. CLEMENS    MOSUNNY   76  58  55 NW8       29.91S
PONTIAC        PTSUNNY   72  56  57 NW12      29.93R
PORT HOPE        N/A     71  59  65 NW10      29.88S
PORT HURON     CLOUDY    72  57  60 W3        29.92S
TRI CITIES     MOSUNNY   74  59  59 NW9       29.92F
MIDLAND        FAIR      75  57  54 N7        29.91S
TROY           PTSUNNY   76  56  49 NW12G22   29.95R
SAGINAW HB     MOSUNNY   73  59  60 NW10      29.91F
$$
MIZ043>046-050>051-056>058-064>065-071>073-077>080-191800-
SOUTHWEST LOWER MICHIGAN

CITY           SKY/WX    TMP DP  RH WIND       PRES   REMARKS
BATTLE CREEK   SUNNY     76  57  51 W8        29.97R
BENTON HARBOR  SUNNY     75  58  55 MISG      29.97R
BIG RAPIDS     MOSUNNY   74  55  50 NW9       29.94S
COLDWATER      MOSUNNY   76  55  47 N7        29.96S
FREMONT        FAIR      75  61  60 W7        29.94S
HOLLAND        SUNNY     75  60  59 VRB6      29.97S
GRAND RAPIDS   MOSUNNY   76  57  51 SW7       29.95S
IONIA          FAIR      75  57  52 CALM      29.94S
KALAMAZOO      MOSUNNY   77  53  43 VRB3      29.96S
LUDINGTON      SUNNY     71  63  74 W5        29.93S
MARSHALL       SUNNY     75  55  49 NW3       29.95F
MOUNT PLEASANT MOSUNNY   76  58  52 W6        29.92F
MUSKEGON       MOSUNNY   75  62  64 W9        29.95F
SOUTH HAVEN    SUNNY     75  59  56 NW8       29.97S
$$
MIZ016>042-191800-
NORTHERN LOWER MICHIGAN

CITY           SKY/WX    TMP DP  RH WIND       PRES   REMARKS
ALPENA         MOSUNNY   75  58  55 NW10G16   29.87F
BEAVER ISLAND  SUNNY     71  62  73 SW16      29.89S
BELLAIRE       MOSUNNY   73  58  59 SW8       29.90F
CADILLAC       MOSUNNY   76  58  53 SW12      29.93S
CHARLEVOIX     SUNNY     73  57  56 SW13      29.92S
FRANKFORT      PTSUNNY   72  66  82 SW9       29.92S
GAYLORD        PTSUNNY   70  57  63 W14       29.91S
GRAYLING       PTSUNNY   72  57  59 NW9       29.93S
HARBOR SPRINGS MOSUNNY   72  55  55 W8        29.89S
HOUGHTON LAKE  PTSUNNY   71  57  61 W8        29.93S
MANISTEE       SUNNY     73  63  70 W8        29.92S
OSCODA         PTSUNNY   76  55  46 NW12      29.87F
PELLSTON       PTSUNNY   73  57  57 W10       29.89S
ROGERS CITY    SUNNY     68  58  70 N8        29.88S
TRAVERSE CITY  PTSUNNY   76  56  49 SW7G17    29.88F
$$
MIZ007>008-015-191800-
EASTERN UPPER MICHIGAN

CITY           SKY/WX    TMP DP  RH WIND       PRES   REMARKS
KINROSS        MOSUNNY   71  59  65 SW7       29.87S
MACKINAC ISLAN CLOUDY    67  62  83 W8        29.88S
NEWBERRY       MOSUNNY   72  60  66 W5        29.86S
S. S. MARIE    SUNNY     71  58  63 NW9       29.85F
MUNISING         N/A     73  63  70 N7        29.85F
$$
MIZ004>006-011>014-085-191800-
CENTRAL UPPER MICHIGAN

CITY           SKY/WX    TMP DP  RH WIND       PRES   REMARKS
MANISTIQUE     SUNNY     71  63  76 SW7       29.86S
ESCANABA       SUNNY     76  62  62 S8        29.87
MENOMINEE      SUNNY     76  63  64 VRB6      29.90S
SAWYER-GWINN   SUNNY     73  59  60 NW9       29.87F
$$
MIZ001>003-009>011-084-191800-
WESTERN UPPER MICHIGAN

CITY           SKY/WX    TMP DP  RH WIND       PRES   REMARKS
IRON MOUNTAIN  SUNNY     77  58  51 W10       29.88F
HOUGHTON       SUNNY     71  59  65 W18       29.86S
COPPER HARBOR    N/A     65  57  75 N16       29.83S
IRONWOOD       SUNNY     74  59  59 W7        29.90F
$$

ABBREVIATIONS USED IN REMARKS
   TC - TEMPERATURE IN CELSIUS
  WCI - WIND CHILL INDEX
   HX - HEAT INDEX
  VSB - VISIBILITY





USA.gov is the U.S. government's official web portal to all federal, state and local government web resources and services.